Flag for Bosnia-Herzegovina Weather past 2 weeks in Mostar, Bosnia-Herzegovina

Now
59 °F

Clear.


Feels Like: 60 °F
Forecast: 53 / 83 °F
Wind: 3 mph from Southeast

Location: Mostar

Current Time: Sep 18, 2014 at 1:59:13 AM

Latest Report: Sep 18, 2014 at 1:00 AM


Visibility: 10 mi

Pressure: 30.01 "Hg

Humidity: 82%

Dew point: 54 °F

Location of MostarLocation

Historic Weather in Mostar — Graph

°F

Mostar temperature yesterday

Maximum temperature yesterday: 81 °F (at 3:00 PM)
Minimum temperature yesterday: 52 °F (at 7:00 AM)
Average temperature yesterday: 67 °F

Past Weeks' High & Low Weather Summary

 TemperatureHumidityPressure
High84 °F (Sep 9, 4:00 PM)100% (Sep 4, 11:00 PM)30.04 "Hg (Sep 4, 11:00 PM)
Low52 °F (Sep 16, 6:00 AM)34% (Sep 17, 4:00 PM)29.68 "Hg (Sep 3, 12:00 AM)
Average69 °F76%29.89 "Hg
* Reported Midnight between Sep 2 and Sep 3 — Midnight between Sep 17 and Sep 18, Mostar, Weather by CustomWeather, © 2014

Note: Actual official high and low records may vary slightly from our data, if they occured in-between our weather recording intervals... More about our weather records

Advertising

Mostar weather history for previous 24 hours

 ConditionsComfort  
Time TempWeatherWind HumidityBarometerVisibility
12:00 AM
Sep 18
61 °FPassing clouds.5 mph83%30.01 "HgN/A
11:00 PM
Sep 17
61 °FClear.3 mph83%30.01 "Hg10 mi
10:00 PM64 °FClear.5 mph73%29.98 "Hg10 mi
9:00 PM66 °FClear.3 mph68%29.98 "Hg10 mi
8:00 PM72 °FClear.5 mph53%29.95 "Hg10 mi
7:00 PM73 °FPartly sunny.10 mph53%29.95 "HgN/A
6:00 PM77 °FPartly sunny.8 mph39%29.92 "HgN/A
5:00 PM79 °FPartly sunny.6 mph37%29.92 "HgN/A
4:00 PM81 °FPartly sunny.3 mph34%29.92 "HgN/A
3:00 PM81 °FScattered clouds.5 mph37%29.92 "HgN/A
2:00 PM79 °FPassing clouds.5 mph39%29.92 "HgN/A
1:00 PM79 °FPassing clouds.5 mph39%29.95 "HgN/A
12:30 PM79 °FPassing clouds.3 mph39%29.95 "HgN/A
12:00 PM75 °FPassing clouds.3 mph44%29.98 "HgN/A
11:30 AM75 °FPassing clouds.3 mph44%29.98 "HgN/A
11:00 AM73 °FPassing clouds.2 mph50%29.98 "HgN/A
10:30 AM72 °FPassing clouds.1 mph50%29.98 "HgN/A
10:00 AM70 °FPassing clouds.2 mph53%29.98 "HgN/A
9:30 AM66 °FPassing clouds.2 mph60%29.98 "HgN/A
9:00 AM63 °FPassing clouds.2 mph73%29.98 "HgN/A
8:00 AM55 °FClear.3 mph88%29.98 "HgN/A
7:00 AM52 °FPassing clouds.3 mph94%29.98 "HgN/A
6:00 AM54 °FClear.2 mph88%29.98 "Hg10 mi
5:00 AM55 °FPassing clouds.3 mph88%29.98 "HgN/A
4:00 AM57 °FClear.5 mph82%29.98 "Hg10 mi
3:00 AM57 °FPassing clouds.5 mph82%29.98 "HgN/A
2:00 AM57 °FClear.5 mph82%29.98 "Hg10 mi
1:00 AM57 °FClear.3 mph88%29.98 "Hg10 mi
Weather by CustomWeather, © 2014

See weather overviewHow to use our weather pages